Hourly Weather Roundup
Issued by NWS Central Illinois

Home | Current Version | Previous Version | Text Only | Print | Product List | Glossary On
Versions: 1 2 3 4 5 6 7 8 9 10 11 12 13 14 15 16 17 18 19 20 21 22 23 24 25 26 27 28 29 30 31 32 33 34 35 36 37 38 39 40 41 42 43 44 45 46 47 48 49 50
000
NZUS43 KILX 250010
HWRILX

AREA WEATHER ROUNDUP
NATIONAL WEATHER SERVICE, LINCOLN IL
600 PM CST WED DEC 24 2014


CITY           SKY/WX    TMP DP  RH WIND       PRES   REMARKS
BLOOMINGTON    LGT RAIN  35  34  96 W13       29.63R WCI  26
6HR MIN TEMP:  35; 6HR MAX TEMP:  38; 6HR PCP: TRACE;

CHAMPAIGN      CLOUDY    37  34  89 W17       29.64R WCI  27
6HR MIN TEMP:  35; 6HR MAX TEMP:  39; 6HR PCP:  0.09;

DECATUR        CLOUDY    37  33  85 W13       29.67R WCI  29
6HR MIN TEMP:  37; 6HR MAX TEMP:  39; 6HR PCP: TRACE;

FLORA          MOCLDY    38  35  90 W10       29.74R WCI  30
6HR MIN TEMP:  38; 6HR MAX TEMP:  40; 6HR PCP:  0.01;

GALESBURG      CLOUDY    36  33  90 W13       29.66R WCI  27
JACKSONVILLE   CLOUDY    38  35  87 W14       29.71R WCI  30
6HR MIN TEMP:  38; 6HR MAX TEMP:  39;

LACON          CLOUDY    35  32  88 W7        29.62R WCI  29
6HR MIN TEMP:  35; 6HR MAX TEMP:  37;

LAWRENCEVILLE  CLOUDY    40  37  89 SW13      29.71R WCI  32
6HR MIN TEMP:  40; 6HR MAX TEMP:  42; 6HR PCP: TRACE;

LITCHFIELD     CLOUDY    35  32  89 W13       29.73R WCI  27
$$


CITY           SKY/WX    TMP DP  RH WIND       PRES   REMARKS
LINCOLN        CLOUDY    37  35  91 W7        29.66R WCI  32
6HR MIN TEMP:  37; 6HR MAX TEMP:  39;

MACOMB         CLOUDY    36  33  89 W14       29.70R WCI  27
MATTOON        CLOUDY    37  34  89 SW10      29.67R WCI  30
6HR MIN TEMP:  35; 6HR MAX TEMP:  38; 6HR PCP: TRACE;

MT CARMEL AP   CLOUDY    41  36  81 W15       29.71R WCI  33
OLNEY-NOBLE AP LGT RAIN  37  34  87 W12       29.73R WCI  30
PARIS          CLOUDY    37  36  96 W17       29.66R WCI  27
6HR MIN TEMP:  37; 6HR MAX TEMP:  40;

PEORIA         CLOUDY    38  32  79 W9        29.65R WCI  31
6HR MIN TEMP:  37; 6HR MAX TEMP:  39; 6HR PCP: TRACE;

PONTIAC        CLOUDY    37  35  94 W12       29.61R WCI  29
RANTOUL        CLOUDY    38  36  93 W14       29.62R WCI  29
6HR MIN TEMP:  38; 6HR MAX TEMP:  39; 6HR PCP:  0.02;

ROBINSON       CLOUDY    39  36  91 W17       29.71R WCI  29
6HR MIN TEMP:  38; 6HR MAX TEMP:  40; 6HR PCP:  0.01;

SPRINGFIELD    CLOUDY    37  33  85 W13       29.69R WCI  29
6HR MIN TEMP:  37; 6HR MAX TEMP:  38; 6HR PCP: TRACE;

TAYLORVILLE    CLOUDY    36  32  87 W10       29.70R WCI  28
$$

...REGIONAL REPORTS...


CITY           SKY/WX    TMP DP  RH WIND       PRES   REMARKS
CHICAGO O`HARE CLOUDY    37  34  89 W12       29.51R WCI  29
KANKAKEE       CLOUDY    36  35  95 W12G18    29.57R WCI  28
MOLINE         CLOUDY    37  31  78 W15G24    29.64R WCI  28
MOUNT VERNON   CLOUDY    37  32  81 W10       29.76R WCI  30
PITTSFIELD     CLOUDY    38  33  82 W12G18    29.73R WCI  30
QUINCY         CLOUDY    37  31  78 NW15      29.73R WCI  28
ROCKFORD       FLURRIES  35  32  88 NW10      29.57R WCI  27
$$


CITY           SKY/WX    TMP DP  RH WIND       PRES   REMARKS
BURLINGTON     CLOUDY    37  33  85 NW13G18   29.68R WCI  29
CEDAR RAPIDS   CLOUDY    34  32  92 W14       29.66R WCI  25
DES MOINES     FLURRIES  34  30  85 W10       29.74R WCI  26
KIRKSVILLE     LGT SNOW  34  33  96 W9        29.77R FOG     WCI  27
OTTUMWA        CLOUDY    34  31  88 W9        29.71R WCI  27
ST LOUIS       CLOUDY    39  33  79 W15       29.76R WCI  31
$$


CITY           SKY/WX    TMP DP  RH WIND       PRES   REMARKS
TERRE HAUTE    CLOUDY    38  34  85 W16G26    29.66R WCI  29
EVANSVILLE     CLOUDY    41  36  82 SW12      29.76R WCI  34
INDIANAPOLIS   DRIZZLE   36  34  92 SW14      29.61R WCI  27
LAFAYETTE      LGT RAIN  36  34  92 W9        29.59R WCI  29
MADISON        CLOUDY    35  32  88 NW7       29.53S WCI  29
MILWAUKEE      CLOUDY    37  33  85 W12       29.49S WCI  29
$$





USA.gov is the U.S. government's official web portal to all federal, state and local government web resources and services.